Theta_e
281 281 281 281 281 281 281 280 280 280 280 280 281 281 281 281 281 281 282 282 282 283 283 283 283 283 283 283 283 284 284 284 284 284 284 284 285 285 285 285 285 285 286 286 286 286 286 285 285 285 284 284 284 284 284 284 284 284 284 284 284 284 285
279 279 279 280 280 280 280 280 280 280 279 279 279 279 279 279 279 279 280 280 281 281 281 281 281 282 282 282 282 282 282 283 283 283 283 283 284 284 284 284 284 285 285 285 285 285 285 285 284 284 284 284 283 283 283 283 283 283 283 283 283 283 283
277 277 278 278 278 279 279 279 279 279 279 279 278 278 278 278 278 278 278 278 279 279 279 279 279 279 280 280 280 280 281 281 281 282 282 282 282 283 283 283 283 284 284 284 284 284 284 284 284 284 284 283 282 282 282 282 282 282 282 282 282 282 282
275 275 276 276 277 277 277 278 278 278 278 278 278 278 278 277 277 277 277 277 277 277 277 277 277 277 277 278 278 278 279 279 280 280 280 281 281 281 281 282 282 282 283 283 283 283 283 283 284 283 283 282 282 282 281 281 281 281 281 281 281 281 281
273 274 274 274 275 275 275 276 276 276 276 276 276 276 276 276 276 276 276 276 276 276 276 276 276 276 276 276 276 276 277 278 278 278 278 279 279 280 280 280 280 281 281 281 282 282 282 282 282 282 282 281 281 281 280 280 280 280 280 280 280 280 280
272 272 273 273 273 273 273 274 274 274 274 274 274 274 275 275 275 275 275 275 275 276 276 276 276 276 276 276 275 276 276 276 276 276 276 277 277 278 278 279 279 279 279 280 280 280 280 280 280 280 280 280 280 280 280 280 280 280 280 279 279 280 280
271 271 271 271 271 271 271 272 272 272 272 272 273 273 273 274 274 274 274 275 275 275 275 275 275 275 275 275 275 275 276 275 275 275 275 276 276 276 277 277 277 278 278 278 279 279 279 279 279 279 280 280 279 279 279 279 279 279 279 279 279 279 279
270 270 270 270 270 270 270 270 270 271 271 272 272 273 273 273 273 273 274 274 274 274 274 274 274 274 274 275 275 275 275 275 275 275 276 276 276 276 276 276 277 277 277 278 278 278 279 279 279 279 279 279 279 279 278 278 278 278 279 279 279 279 279
270 270 270 270 270 270 270 270 269 270 270 271 272 272 272 272 272 272 272 273 273 273 273 273 273 273 273 273 274 274 274 274 275 275 275 275 276 276 276 276 276 277 277 278 278 278 279 279 279 279 279 279 279 279 279 278 278 278 278 278 278 279 279
269 269 269 269 269 269 269 269 268 269 269 270 272 272 272 271 271 271 271 271 271 271 272 272 272 272 272 272 272 273 273 274 274 274 274 274 275 275 275 275 276 276 277 277 277 278 278 279 279 279 279 279 279 279 279 278 278 278 278 278 278 278 278
268 268 268 268 268 268 268 268 269 269 269 270 271 271 271 271 271 271 271 270 270 270 270 270 270 270 270 270 271 271 272 272 273 273 273 274 274 274 274 275 275 275 276 276 276 276 277 277 277 278 278 278 278 278 278 278 278 278 278 278 278 278 278
268 268 267 267 268 268 268 268 268 269 268 268 270 270 270 271 270 270 270 269 269 268 268 269 269 269 269 269 269 270 270 270 271 271 272 272 273 273 273 274 274 274 275 275 275 275 276 276 276 276 276 276 277 277 277 277 277 277 277 277 277 278 278
267 267 267 266 266 267 267 267 267 267 267 267 269 269 270 270 270 269 268 268 267 267 267 267 267 268 268 268 268 268 269 269 270 270 271 271 272 272 272 273 273 273 274 274 274 274 275 275 275 275 275 275 276 276 276 276 276 276 276 276 277 277 277
266 266 266 265 265 266 266 266 266 266 266 267 267 268 269 269 268 268 267 266 266 265 266 266 266 266 267 267 267 267 268 268 269 269 270 270 270 271 271 272 272 272 273 273 273 274 274 274 274 274 274 275 275 275 275 275 275 275 276 276 276 276 276
265 265 265 265 265 265 266 266 266 266 266 266 266 267 268 268 267 267 266 265 265 265 265 265 265 265 266 266 266 266 267 267 267 268 268 268 269 269 269 270 270 271 271 272 272 273 273 273 273 273 273 273 273 273 273 274 274 274 274 275 275 275 275
265 265 265 265 265 265 266 266 266 265 265 265 266 266 267 267 266 266 265 265 264 264 264 264 264 264 265 265 265 265 266 266 266 266 266 267 267 267 268 268 268 269 269 270 271 271 271 272 272 273 273 273 273 273 273 273 274 274 274 274 274 275 275
264 265 265 265 265 265 265 265 265 265 265 265 265 265 266 266 266 266 265 264 264 264 264 264 264 264 264 264 264 265 265 265 265 266 266 266 266 266 266 266 266 267 267 268 268 269 270 270 271 271 272 272 273 273 273 273 273 274 274 274 274 275 275
264 265 265 265 265 265 264 265 265 265 264 264 264 264 265 265 266 265 265 264 264 264 264 264 264 263 263 264 264 264 264 264 265 265 265 265 265 265 265 265 266 266 266 266 267 267 268 268 269 269 270 270 271 271 272 272 272 272 273 273 273 274 275
263 264 264 264 264 264 264 264 265 265 264 264 264 264 264 265 265 264 264 264 264 264 264 264 264 263 263 263 263 263 263 264 264 264 264 264 264 265 265 265 266 266 266 266 266 266 266 266 267 267 268 268 269 269 270 270 271 271 272 272 272 273 273
263 263 264 264 264 264 264 264 264 264 264 264 263 263 263 263 264 264 264 263 263 264 264 264 264 264 263 263 263 263 263 263 263 263 264 264 264 265 265 265 265 265 265 265 265 265 265 265 266 266 266 267 267 268 269 269 270 270 271 271 272 272 272
263 263 264 264 264 264 264 264 264 264 263 263 263 262 262 262 263 263 263 263 263 263 263 264 264 264 264 263 262 262 262 263 263 263 264 264 264 264 264 264 264 264 264 264 265 265 265 265 266 266 267 267 268 268 269 269 270 270 270 270 271 271 272
263 262 262 263 263 263 264 264 263 263 263 263 262 262 261 262 262 262 262 262 262 263 263 263 263 263 263 262 262 262 262 262 263 263 263 263 263 264 264 264 264 264 264 264 264 265 265 265 266 266 267 267 268 268 269 269 269 270 270 270 270 270 271
262 262 261 262 263 263 264 264 264 263 263 262 262 261 261 261 261 261 261 262 262 262 262 263 263 263 262 262 262 262 262 262 263 263 263 263 263 263 263 263 263 264 264 264 264 265 265 265 266 266 267 267 267 268 268 268 269 269 269 269 269 269 270
262 262 262 262 262 263 263 263 263 263 263 262 262 261 261 260 260 260 261 261 261 262 262 262 262 262 262 261 261 261 262 262 262 262 262 262 262 263 263 263 263 263 264 264 264 264 265 265 266 266 266 267 267 267 268 268 268 268 268 268 268 268 268
262 262 262 262 262 262 262 262 262 262 262 262 262 261 261 260 260 260 260 260 261 261 261 261 261 261 261 261 261 261 261 261 262 262 262 262 262 262 262 263 263 263 263 264 264 264 265 265 265 266 266 266 266 267 267 267 267 267 268 268 268 268 268
262 262 262 262 262 262 262 262 261 261 261 261 261 261 260 260 260 260 260 260 260 260 260 260 260 260 260 260 260 261 261 261 262 262 261 261 261 261 262 262 263 263 263 263 264 264 264 265 265 265 266 266 266 266 266 267 267 267 267 267 268 268 268
262 262 262 262 262 262 261 261 261 261 261 261 260 260 260 260 260 260 260 260 260 260 260 260 260 260 260 260 260 261 261 261 261 261 261 261 261 262 262 262 262 262 262 263 263 263 264 264 264 265 265 265 266 266 266 267 267 267 267 267 268 268 268
262 262 262 262 262 262 261 261 261 261 261 260 260 260 260 260 260 260 260 260 260 260 260 260 260 260 260 260 261 261 261 261 261 261 261 261 261 261 261 261 261 261 262 262 262 263 263 263 264 264 264 265 265 266 266 266 267 267 267 267 267 267 267
262 262 262 261 261 261 261 261 261 261 260 260 259 259 260 260 260 260 260 260 260 260 260 260 260 260 261 261 261 261 261 261 261 261 261 261 261 260 261 261 261 261 262 262 262 263 263 263 263 264 264 264 265 265 266 266 266 267 267 267 267 267 267
261 261 261 260 260 260 260 260 260 260 259 259 259 259 259 259 259 259 259 259 259 259 259 260 260 260 261 261 261 261 261 261 261 261 261 261 261 260 261 261 261 261 262 262 262 262 262 263 263 263 263 264 264 265 265 266 266 266 266 266 266 266 266
260 260 260 259 259 259 259 259 259 259 259 259 259 259 259 259 259 259 259 259 259 259 259 260 260 260 261 261 261 261 261 261 260 260 260 260 260 260 260 260 261 261 261 261 262 262 262 262 262 262 263 263 264 264 265 265 266 266 266 266 266 266 266
260 259 259 259 258 258 258 258 258 258 258 258 258 258 258 258 258 258 258 258 258 258 259 259 260 260 260 260 260 260 260 260 260 260 260 260 260 260 260 260 260 261 261 261 261 261 261 261 262 262 262 263 263 263 264 264 265 265 266 266 266 266 266
259 259 259 259 259 259 258 258 258 258 258 258 257 257 258 257 258 257 257 258 258 258 259 259 260 260 260 260 260 260 259 259 259 259 259 259 259 260 260 260 260 260 259 260 260 260 260 261 261 262 262 262 262 263 263 264 264 265 265 265 266 266 266
259 259 259 259 259 259 258 258 258 258 257 257 257 257 257 257 257 257 257 257 258 258 259 259 259 260 259 259 259 259 259 259 259 259 259 259 259 259 259 259 259 259 259 259 260 260 260 261 261 261 261 262 262 262 263 263 264 264 265 265 265 265 265
259 259 259 259 259 259 258 258 258 258 258 257 257 256 256 256 257 257 258 258 258 258 258 259 259 259 259 259 259 259 258 258 258 258 258 259 259 259 259 259 259 259 259 259 260 260 260 260 261 261 261 261 262 262 262 263 263 263 264 264 265 265 265
259 258 258 258 258 258 258 258 258 258 257 257 257 256 256 256 257 258 258 258 258 258 258 258 258 258 258 258 258 258 258 258 258 258 258 258 258 258 258 258 258 259 259 259 259 259 260 260 260 260 261 261 261 261 262 262 262 262 263 263 263 264 264
Wind_Speed
5 5 4 3 3 2 2 2 3 4 4 5 6 6 7 7 8 8 8 8 8 8 8 9 10 10 11 11 11 12 12 13 13 14 15 16 17 18 18 18 19 16 16 18 20 20 19 16 15 17 18 18 20 20 21 24 27 28 30 32 34 35 35
5 5 5 4 4 4 3 2 1 0 1 3 4 5 6 7 7 7 8 7 8 8 8 8 10 10 10 11 12 13 13 14 14 14 15 16 16 18 18 18 20 19 17 17 17 19 20 19 19 20 20 19 20 21 23 25 28 28 29 30 32 33 34
5 5 5 4 4 4 3 3 3 2 1 1 2 3 3 5 5 6 7 8 8 10 10 10 11 12 12 12 13 14 14 14 15 16 17 17 17 18 18 18 20 21 20 19 18 19 19 19 19 20 20 20 19 20 21 24 27 29 30 31 32 33 34
5 5 5 5 4 4 4 3 3 2 2 2 2 2 2 3 3 4 5 6 8 9 10 11 12 13 14 14 15 15 14 13 14 15 16 17 17 19 20 20 21 23 23 23 22 20 19 20 21 20 18 17 18 18 19 21 24 27 29 31 32 34 35
6 6 6 6 5 4 4 3 2 2 2 2 2 2 2 2 2 3 3 4 5 6 8 9 10 11 12 13 14 14 12 12 13 14 14 15 15 16 17 18 20 22 23 25 25 23 20 20 20 20 18 16 17 17 17 19 22 25 29 31 32 34 35
8 8 7 6 5 5 4 3 2 2 2 2 2 3 3 3 3 2 2 2 3 4 5 6 7 8 9 10 11 11 11 12 14 15 15 16 16 15 16 16 17 19 20 23 24 23 20 19 19 20 19 17 17 18 18 18 19 21 24 28 31 35 36
9 9 8 7 6 5 4 4 3 2 2 3 4 4 4 4 3 3 3 2 2 3 3 4 5 6 7 8 9 10 11 11 12 13 15 15 15 15 15 16 16 17 18 20 21 21 19 18 18 19 19 17 15 17 18 17 18 19 19 20 24 29 32
8 9 8 8 7 6 6 6 5 3 4 6 6 6 5 4 4 4 3 3 3 3 3 4 5 6 7 8 8 9 10 10 10 10 11 12 12 13 14 15 16 17 18 19 20 20 19 17 17 17 17 16 14 14 15 15 16 19 20 18 19 22 24
7 8 8 7 7 7 7 7 6 4 5 8 7 6 5 4 4 4 3 3 4 4 4 4 5 5 6 7 9 9 10 10 10 10 10 10 10 11 12 14 15 16 17 18 19 21 20 19 19 19 18 17 17 17 16 15 16 19 19 18 21 24 24
7 8 8 8 7 7 6 7 6 4 5 7 8 6 5 4 4 3 3 3 3 4 4 5 5 6 7 8 9 10 10 11 11 12 12 12 12 11 12 12 14 15 16 17 18 19 19 17 18 18 17 18 18 18 19 18 18 20 20 18 19 22 22
7 8 9 8 7 7 7 7 7 5 4 7 8 7 6 6 4 3 2 3 3 4 5 6 6 7 8 8 9 10 11 11 12 13 14 14 14 14 14 13 13 14 15 17 18 20 19 18 18 18 17 18 18 18 18 19 18 19 20 19 17 17 18
8 9 9 8 8 8 7 8 8 6 5 6 8 7 7 6 4 3 3 3 4 5 6 7 7 7 7 8 8 9 9 10 12 13 15 16 16 17 17 17 17 16 16 16 18 20 20 20 19 19 18 18 18 18 18 19 19 19 20 20 19 19 19
8 9 10 9 9 9 8 9 9 8 6 6 8 8 7 6 6 5 5 5 6 8 8 8 8 8 8 9 9 9 10 10 11 12 13 14 15 16 17 18 19 20 20 20 20 21 23 22 20 20 20 17 17 18 18 18 19 19 20 21 23 23 24
8 10 10 10 10 10 10 10 11 10 8 7 8 9 8 7 8 7 6 8 10 10 10 10 10 10 9 10 10 10 9 10 10 11 12 13 14 15 16 16 17 18 20 22 23 24 26 24 21 22 22 19 18 19 19 20 20 21 22 23 24 25 26
8 10 12 12 12 12 12 13 12 12 10 9 9 10 9 7 8 7 6 8 11 11 11 11 11 10 10 10 10 10 9 10 10 11 13 14 16 18 18 19 20 20 20 20 21 23 24 23 22 24 24 23 22 23 23 25 25 25 27 27 27 28 28
9 12 13 13 13 14 15 15 14 13 12 11 10 10 8 7 7 7 6 8 11 11 10 10 10 10 10 10 10 11 10 10 11 12 12 13 14 15 16 18 22 25 24 23 22 23 24 25 25 26 26 26 25 24 24 25 26 26 26 25 24 26 28
13 14 15 15 15 16 16 16 16 14 13 12 10 9 9 7 7 7 7 8 9 10 10 10 10 10 11 10 10 11 11 10 11 12 13 13 13 13 14 17 22 24 24 24 24 25 27 28 28 28 29 29 28 27 25 22 20 20 20 19 16 16 21
15 16 16 16 16 16 17 17 17 15 14 12 10 9 8 7 7 7 8 8 9 10 11 11 11 12 12 12 12 12 11 11 11 12 12 12 13 15 16 16 17 17 17 18 19 21 23 24 26 26 27 28 29 31 30 26 22 19 17 17 15 14 17
15 17 17 18 18 17 17 18 17 16 15 14 12 9 8 7 8 9 9 9 10 11 10 10 10 12 13 13 12 11 11 11 11 12 12 13 14 16 16 15 12 12 13 14 16 18 18 20 23 23 24 26 26 27 27 26 25 23 20 19 19 18 15
17 18 19 19 19 19 18 18 17 16 15 14 12 10 8 7 8 10 9 9 10 11 11 10 9 10 11 11 11 11 11 12 12 13 14 14 14 15 15 13 12 13 14 15 16 18 19 20 22 23 23 24 24 23 23 24 24 25 24 22 22 20 17
18 19 21 21 20 20 19 18 17 16 15 14 12 10 9 8 8 8 8 9 11 11 11 10 9 9 9 9 10 11 12 13 13 14 14 14 15 15 15 14 14 15 15 16 16 17 18 19 19 19 19 19 19 19 20 21 22 22 22 22 23 21 20
19 19 20 21 22 21 20 19 17 16 15 14 13 11 10 9 9 9 9 10 11 11 11 10 10 10 9 9 11 13 14 14 15 14 15 15 15 16 16 16 16 15 15 15 15 15 16 16 16 17 17 16 16 17 18 19 20 20 20 21 23 22 22
19 19 18 19 21 22 21 20 17 16 16 15 14 12 11 11 11 11 11 11 12 12 11 11 10 10 10 12 14 15 15 16 16 15 16 16 16 17 17 16 15 14 15 15 15 15 16 16 16 16 16 16 16 16 16 18 19 19 20 21 22 22 24
14 14 14 15 16 18 20 20 18 17 16 15 14 13 12 12 12 12 12 13 13 12 12 12 11 11 13 15 17 18 18 19 19 18 17 17 16 16 16 15 15 15 15 15 15 15 16 16 15 16 16 16 15 15 16 17 18 19 20 21 22 23 25
12 11 11 11 12 14 16 17 18 18 18 17 15 15 14 13 12 13 14 14 13 13 13 14 15 17 18 20 20 20 19 18 17 16 15 15 16 16 15 15 15 14 14 15 15 15 16 16 15 16 16 16 16 17 18 19 20 21 21 21 23 25 25
13 13 12 12 11 12 14 16 17 18 18 17 15 13 13 13 13 13 14 15 16 16 17 18 19 20 20 19 18 17 16 15 14 14 15 16 16 16 15 15 14 15 15 15 15 15 16 16 16 16 17 17 17 18 18 18 18 19 20 19 20 21 21
14 14 14 13 12 11 12 14 14 14 12 12 11 10 10 10 10 11 12 13 14 14 14 15 16 17 17 17 17 17 16 16 16 15 15 15 14 13 13 13 13 14 15 15 16 16 17 17 17 16 17 17 17 17 17 17 17 18 18 17 17 18 19
14 15 15 15 13 12 12 12 12 11 10 8 8 8 8 9 9 9 10 10 10 10 11 12 14 15 16 16 15 15 14 14 14 13 13 12 12 12 13 13 13 14 15 15 16 17 17 16 16 16 16 16 16 17 17 17 17 18 17 15 15 16 17
14 14 13 12 12 13 14 13 12 10 9 9 9 10 11 11 11 10 10 11 11 11 13 14 14 15 14 13 13 13 12 12 12 11 12 12 12 12 12 13 13 14 14 15 15 15 15 15 15 15 15 15 15 16 16 16 17 17 15 14 14 15 16
19 17 14 12 11 12 14 15 15 13 13 14 15 15 16 16 16 15 15 15 15 14 15 15 15 14 14 13 13 12 12 12 11 11 12 12 12 12 12 12 13 13 13 13 13 14 14 14 14 14 14 14 15 15 15 15 16 16 14 13 13 14 15
21 21 20 18 16 15 15 18 20 20 20 19 18 18 18 18 18 18 17 16 15 14 15 15 15 15 14 13 13 13 12 12 12 12 13 13 13 13 13 13 13 13 12 12 12 13 13 13 13 14 14 14 15 15 15 15 15 15 14 14 14 14 14
19 19 20 21 21 19 18 19 19 20 20 19 18 18 18 18 18 18 17 15 14 15 16 16 15 15 14 13 13 13 13 13 13 13 13 12 13 13 13 14 13 12 10 10 11 13 13 13 14 14 14 14 14 14 15 15 15 15 15 14 14 14 14
18 18 19 20 21 22 22 22 21 21 21 21 20 19 18 18 18 17 16 14 14 15 16 16 15 15 14 13 14 14 14 13 13 13 13 13 13 13 14 13 12 10 10 11 13 13 14 14 14 14 13 14 14 14 14 15 15 15 15 14 14 14 13
15 15 16 18 19 20 22 22 22 21 22 21 20 19 18 17 16 16 16 15 15 15 16 15 15 15 14 14 14 14 14 14 13 13 13 13 13 13 13 12 11 10 11 12 13 13 14 14 14 13 13 13 13 13 14 14 14 15 14 14 14 13 13
13 13 15 17 19 19 20 21 21 21 20 19 18 17 15 14 14 14 14 14 15 16 16 16 16 15 15 15 14 14 13 13 13 13 13 12 12 12 12 12 11 11 12 12 12 13 14 13 13 13 13 14 14 14 13 14 14 15 15 14 14 13 13
14 13 13 17 20 21 21 20 20 19 19 18 17 16 13 12 13 13 13 13 14 15 16 16 16 16 15 15 14 14 13 13 12 12 12 12 12 12 12 12 12 12 11 11 12 13 14 13 14 14 13 13 14 14 14 14 14 14 15 14 13 13 13
Wind_Direction
115 117 118 123 135 155 180 203 221 229 231 227 228 231 230 233 241 246 243 239 239 239 243 248 248 249 249 250 251 251 252 251 248 247 246 244 245 244 242 241 244 253 266 268 266 267 269 267 265 263 256 251 252 254 256 257 257 259 260 261 262 264 263
93 98 102 107 113 115 113 110 104 242 243 245 245 245 246 247 248 251 251 248 247 248 250 251 250 252 252 251 251 251 252 253 251 249 249 247 245 247 245 242 246 254 265 269 266 264 267 266 263 263 259 253 252 254 256 258 259 260 262 263 265 267 267
70 75 80 84 87 87 86 81 67 51 26 317 282 273 274 270 264 263 262 258 257 258 257 255 253 254 254 252 252 251 250 251 251 250 250 251 248 250 250 248 249 255 263 271 271 266 266 266 264 262 258 255 253 251 252 255 258 260 261 263 264 266 268
54 55 52 50 48 45 48 49 45 30 8 352 329 307 302 299 285 271 268 265 263 264 262 259 258 256 255 253 253 254 251 249 249 249 251 253 252 252 254 254 253 255 260 269 272 268 265 265 266 264 260 257 255 249 247 252 256 258 260 262 263 265 266
43 44 42 39 31 24 24 18 11 2 346 340 334 322 306 300 297 282 275 270 268 268 266 265 264 262 261 258 255 255 252 248 247 250 253 254 254 254 256 256 255 256 259 264 268 269 267 265 266 266 263 260 259 255 253 255 256 256 259 261 262 264 264
34 36 36 36 30 23 18 12 6 4 6 10 2 355 346 334 331 324 310 299 289 282 277 273 272 271 268 264 261 259 256 256 257 258 258 257 255 256 259 259 258 260 261 263 267 270 269 266 264 265 264 261 257 257 258 260 261 260 258 258 260 261 263
26 28 28 29 27 23 20 18 18 24 44 41 24 13 10 4 359 354 347 336 323 307 295 286 280 278 275 271 270 269 267 267 267 265 262 259 257 257 257 258 260 261 262 263 266 269 268 265 263 261 262 262 257 254 255 257 262 263 259 256 257 258 260
14 20 21 22 20 17 18 21 24 35 47 34 18 8 3 2 359 355 352 346 333 317 307 301 290 284 280 276 275 276 274 271 268 266 264 260 257 255 254 256 259 260 261 262 265 267 268 267 264 261 261 262 256 250 252 252 253 258 261 260 261 260 260
356 6 9 11 11 6 6 12 17 31 36 19 1 350 348 347 346 343 336 326 320 313 307 301 293 289 283 275 271 271 271 270 268 266 267 264 259 255 254 256 257 258 260 262 264 267 269 269 266 264 265 264 259 257 264 264 256 258 263 263 265 265 264
339 351 356 358 1 358 356 358 359 14 25 5 347 340 338 327 322 324 317 310 309 308 305 299 292 291 288 279 271 267 265 266 266 266 268 268 265 259 256 255 255 256 258 261 264 267 269 269 268 267 267 267 266 267 271 270 264 264 267 267 266 266 264
325 335 342 344 348 347 341 335 332 336 352 349 343 339 327 313 303 298 301 310 312 305 302 299 295 294 293 287 279 275 273 270 267 265 266 267 266 261 258 256 255 257 258 260 263 266 268 268 270 273 272 270 273 274 271 268 266 266 267 267 267 269 268
316 320 328 331 333 332 327 320 316 312 319 333 334 330 319 299 265 264 287 291 294 297 296 295 294 292 290 287 284 283 283 279 275 271 266 265 265 262 259 258 258 259 260 261 264 266 266 267 270 274 272 270 273 275 272 271 268 266 265 265 264 266 269
302 306 315 321 322 319 315 312 311 309 312 322 322 322 320 289 255 262 276 270 276 284 283 284 287 287 284 282 281 282 281 280 281 279 272 267 266 263 261 259 260 261 261 261 264 267 266 266 270 273 271 271 274 275 274 272 270 268 267 264 262 262 265
292 294 304 313 314 313 313 312 314 312 310 313 316 321 318 287 269 275 270 265 275 280 278 278 276 274 275 275 275 275 277 278 281 281 276 270 266 263 261 260 261 262 262 260 260 263 266 268 269 271 273 274 276 275 275 274 273 272 270 267 267 268 267
287 290 302 312 314 314 314 314 315 316 312 307 309 316 313 286 274 277 263 264 277 280 280 280 273 267 267 268 267 268 271 275 278 280 280 276 271 268 267 266 264 263 264 264 262 264 268 271 271 271 273 274 273 271 271 270 269 268 268 268 270 271 267
295 299 308 315 317 316 314 312 312 313 310 304 305 313 309 285 274 272 259 265 277 278 278 274 268 268 268 265 265 265 266 273 277 279 281 280 277 275 274 271 266 263 263 264 266 267 269 271 272 271 271 271 270 267 265 266 265 263 261 260 262 264 263
303 306 311 313 314 313 310 307 308 309 306 300 300 306 300 282 274 269 260 266 273 276 278 273 269 273 271 265 264 264 266 274 279 279 279 278 279 282 281 277 273 270 269 268 268 269 270 272 273 273 274 274 273 272 273 277 275 269 266 264 259 261 262
304 304 306 306 305 305 302 301 303 305 302 295 292 297 294 281 275 272 270 277 280 281 282 277 273 276 273 264 263 267 271 276 279 279 279 279 281 281 279 279 279 279 278 276 275 275 275 276 276 276 277 276 273 273 274 276 277 274 273 272 267 269 273
298 298 300 300 299 299 297 297 298 298 296 292 288 291 292 284 280 279 278 283 284 284 282 274 269 274 274 266 262 268 274 277 278 279 277 277 278 276 275 277 279 280 282 283 284 283 281 281 279 278 278 275 272 271 269 267 269 268 267 266 264 268 273
293 294 295 295 294 294 293 294 295 294 291 288 283 282 282 278 275 273 274 279 281 281 280 272 263 265 268 265 262 268 275 277 277 277 274 272 271 270 273 280 282 281 281 282 282 282 281 280 279 278 277 275 272 269 265 262 261 261 260 261 262 263 262
289 290 291 291 291 292 292 293 293 292 288 284 279 275 273 270 266 265 270 276 277 275 275 271 266 266 265 263 265 272 277 278 277 276 274 270 267 268 275 281 282 281 281 279 277 278 277 278 278 276 275 273 270 267 264 262 259 256 255 256 258 261 262
285 284 286 289 290 291 292 292 292 289 285 281 276 270 267 265 263 264 267 272 272 270 269 268 269 271 269 270 276 280 280 279 279 279 277 272 271 273 276 279 280 279 278 276 274 275 274 274 276 276 274 273 272 269 266 264 261 259 257 256 256 259 263
280 278 279 284 287 289 291 291 290 287 283 279 273 269 266 264 264 264 264 266 268 268 269 270 271 273 277 281 285 286 284 283 281 280 278 276 275 276 278 278 276 273 271 271 270 270 270 271 272 273 273 272 272 271 269 266 264 262 260 259 259 260 263
270 268 270 275 279 284 287 290 291 290 286 279 272 270 270 269 267 265 263 265 266 267 268 270 271 276 282 285 287 286 284 282 280 276 275 275 276 277 277 274 270 266 264 265 265 266 268 269 270 270 271 272 273 275 276 273 270 267 263 262 263 263 264
260 258 261 265 270 275 281 285 289 292 291 286 279 275 275 275 271 264 261 263 265 264 265 268 271 276 280 282 282 282 281 278 273 269 268 271 274 276 273 268 264 263 261 262 264 267 269 271 272 272 273 276 277 277 278 276 272 269 266 264 265 264 263
261 262 263 262 262 268 278 283 287 290 291 291 288 282 278 277 273 265 260 260 262 263 265 267 270 273 276 276 275 273 271 270 268 267 268 270 271 269 264 260 258 258 259 260 263 266 269 271 274 276 278 280 279 276 273 273 271 270 268 266 265 265 265
257 261 263 265 264 266 274 279 282 282 281 281 283 279 272 269 268 264 261 260 260 262 264 265 268 270 270 270 268 266 265 265 265 264 264 264 263 259 255 254 255 256 257 260 262 265 269 272 275 277 278 279 277 274 271 269 270 269 269 268 266 266 267
258 260 261 263 267 270 273 271 269 268 265 266 271 271 268 265 263 261 260 258 260 265 268 270 271 270 268 265 262 261 260 259 257 256 256 258 262 261 259 258 258 257 255 256 258 262 266 270 272 274 276 276 275 274 272 269 268 266 266 266 265 264 265
258 259 261 260 260 263 265 265 263 261 262 266 270 268 266 266 266 265 265 265 270 277 278 276 271 266 262 258 255 254 256 256 256 256 258 261 263 263 263 260 255 253 251 251 254 258 262 267 270 271 274 276 275 274 272 269 266 264 263 262 261 261 263
263 261 260 260 257 254 254 258 264 270 273 274 274 271 268 266 265 266 268 271 275 277 274 270 266 262 258 254 252 252 254 256 258 259 263 268 266 261 261 259 253 252 253 253 254 258 261 265 268 270 272 274 274 275 274 270 266 262 259 258 258 259 261
270 268 265 262 260 259 259 262 268 274 277 277 275 272 268 266 265 266 267 270 273 271 266 262 260 259 256 251 249 250 253 256 259 259 261 265 265 262 260 258 255 255 256 255 256 259 261 262 264 266 269 270 271 274 275 273 269 263 256 253 254 255 258
272 270 267 264 260 259 262 265 268 272 275 276 274 271 268 267 266 266 266 266 265 262 259 257 256 255 253 248 247 251 254 255 255 255 256 257 259 262 262 258 255 256 258 259 261 261 261 261 261 263 265 265 267 270 271 271 270 264 258 254 252 252 253
276 270 267 264 261 260 261 263 266 269 273 274 274 272 269 268 267 266 264 260 256 254 254 254 253 252 248 246 249 253 254 254 253 254 255 255 254 258 260 258 256 256 257 258 259 258 258 259 259 260 261 262 263 264 265 266 265 264 262 259 255 252 251
282 275 268 265 263 261 262 264 267 271 275 278 276 273 271 272 272 268 260 251 246 248 252 252 251 250 248 249 252 254 253 254 254 254 254 255 254 255 258 258 256 255 255 256 256 255 256 257 257 256 258 261 261 261 261 261 261 261 261 259 257 255 254
281 276 272 272 271 268 266 269 272 275 279 281 279 274 273 273 271 266 255 243 238 241 247 249 249 250 251 252 253 254 253 254 255 254 254 255 255 255 256 258 257 255 255 255 256 256 257 257 256 256 257 259 259 258 258 258 258 258 258 259 259 259 258
278 275 274 277 279 277 273 273 273 274 278 281 280 275 271 265 261 258 251 243 240 242 247 250 250 251 253 254 253 254 254 254 254 254 253 253 254 256 257 258 258 258 258 257 258 260 260 258 256 256 256 256 256 255 256 256 256 255 255 255 258 260 262